timestamp,surface_pressure_avg,surface_temp_avg,battery_voltage,lat,long
2024-01-20 00:09:00+00:00,233.3131,0.94,11.46,47.84626,-54.09684
2024-01-20 00:19:01+00:00,234.5397,0.99,11.46,47.84626,-54.09684
2024-01-20 00:29:01+00:00,230.7298,1.0,11.46,47.84626,-54.09684
2024-01-20 00:39:01+00:00,233.5181,0.9,11.46,47.84626,-54.09684
2024-01-20 00:49:01+00:00,241.0514,1.03,11.46,47.84626,-54.09684
2024-01-20 00:59:01+00:00,240.8181,0.8,11.46,47.84626,-54.09684
2024-01-20 01:09:01+00:00,240.608,0.71,11.46,47.84626,-54.09684
2024-01-20 01:19:00+00:00,246.1864,0.7,11.46,47.84626,-54.09684
2024-01-20 01:29:00+00:00,245.7498,0.79,11.46,47.84626,-54.09684
2024-01-20 01:39:00+00:00,247.1214,1.09,11.46,47.84626,-54.09684
2024-01-20 01:49:00+00:00,253.8781,1.24,11.46,47.84626,-54.09684
2024-01-20 01:59:00+00:00,253.3331,1.3,11.46,47.84626,-54.09684
2024-01-20 02:09:00+00:00,242.438,1.1,11.46,47.84626,-54.09684
2024-01-20 02:19:00+00:00,243.1397,1.18,11.46,47.84626,-54.09684
2024-01-20 02:29:00+00:00,257.0681,1.36,11.46,47.84626,-54.09684
2024-01-20 02:39:00+00:00,258.3381,1.4,11.46,47.84626,-54.09684
2024-01-20 02:49:00+00:00,255.5097,1.4,11.46,47.84626,-54.09684
2024-01-20 02:59:00+00:00,263.3932,1.3,11.46,47.84626,-54.09684
2024-01-20 03:09:00+00:00,275.2031,1.36,11.46,47.84626,-54.09684
2024-01-20 03:19:00+00:00,278.5681,1.45,11.46,47.84626,-54.09684
2024-01-20 03:29:00+00:00,279.238,1.4,11.46,47.84626,-54.09684
2024-01-20 03:39:00+00:00,283.0114,1.42,11.46,47.84626,-54.09684
2024-01-20 03:49:00+00:00,286.4547,1.45,11.46,47.84626,-54.09684
2024-01-20 03:59:00+00:00,288.5164,1.4,11.46,47.84626,-54.09684
2024-01-20 04:09:00+00:00,303.363,1.39,11.46,47.84626,-54.09684
2024-01-20 04:19:00+00:00,316.2147,1.35,11.46,47.84626,-54.09684
2024-01-20 04:29:00+00:00,316.953,1.4,11.46,47.84626,-54.09684
2024-01-20 04:39:00+00:00,324.6663,1.32,11.46,47.84626,-54.09684
2024-01-20 04:49:00+00:00,342.9263,1.4,11.46,47.84626,-54.09684
2024-01-20 04:59:00+00:00,344.2097,1.3,11.46,47.84626,-54.09684
2024-01-20 05:09:00+00:00,344.9979,1.2,11.46,47.84626,-54.09684
2024-01-20 05:19:00+00:00,352.4896,1.2,11.46,47.84626,-54.09684
2024-01-20 05:29:00+00:00,355.86800000000005,1.2,11.46,47.84626,-54.09684
2024-01-20 05:39:00+00:00,348.6463,1.1,11.46,47.84626,-54.09684
2024-01-20 05:49:00+00:00,345.6946,1.3,11.46,47.84626,-54.09684
2024-01-20 05:59:00+00:00,355.0379,1.37,11.46,47.84626,-54.09684
2024-01-20 06:09:00+00:00,361.023,1.39,11.46,47.84626,-54.09684
2024-01-20 06:19:00+00:00,361.5164,1.06,11.46,47.84626,-54.09684
2024-01-20 06:29:00+00:00,358.7546,0.7,11.46,47.84626,-54.09684
2024-01-20 06:39:00+00:00,359.3796,0.8,11.46,47.84626,-54.09684
2024-01-20 06:49:00+00:00,367.163,1.06,11.46,47.84626,-54.09684
2024-01-20 06:59:00+00:00,379.4479,1.1,11.46,47.84626,-54.09684
2024-01-20 07:09:00+00:00,385.7379,1.1,11.46,47.84626,-54.09684
2024-01-20 07:19:01+00:00,393.0228,1.1,11.46,47.84626,-54.09684
2024-01-20 07:29:01+00:00,389.2895,1.13,11.46,47.84626,-54.09684
2024-01-20 07:39:01+00:00,374.4079,1.2,11.46,47.84626,-54.09684
2024-01-20 07:49:01+00:00,375.2013,1.3,11.46,47.84626,-54.09684
2024-01-20 07:59:01+00:00,387.4763,1.3,11.46,47.84626,-54.09684
2024-01-20 08:09:01+00:00,380.5762,1.2,11.46,47.84626,-54.09684
2024-01-20 08:19:00+00:00,352.95300000000015,1.21,11.46,47.84626,-54.09684
2024-01-20 08:29:00+00:00,353.458,1.29,11.46,47.84626,-54.09684
2024-01-20 08:39:00+00:00,373.4596,1.3,11.46,47.84626,-54.09684
2024-01-20 08:49:00+00:00,355.5029,1.17,11.46,47.84626,-54.09684
2024-01-20 08:59:00+00:00,340.4579,1.0,11.46,47.84626,-54.09684
2024-01-20 09:09:00+00:00,354.8546,1.08,11.46,47.84626,-54.09684
2024-01-20 09:19:00+00:00,352.7713,1.1,11.46,47.84626,-54.09684
2024-01-20 09:29:00+00:00,329.3313,1.1,11.46,47.84626,-54.09684
2024-01-20 09:39:00+00:00,333.2363,1.18,11.46,47.84626,-54.09684
2024-01-20 09:49:00+00:00,333.5730000000001,1.2,11.46,47.84626,-54.09684
2024-01-20 09:59:00+00:00,313.8796,1.09,11.46,47.84626,-54.09684
2024-01-20 10:09:00+00:00,308.5763,1.05,11.46,47.84626,-54.09684
2024-01-20 10:19:00+00:00,315.6429,1.1,11.37,47.84626,-54.09684
2024-01-20 10:29:00+00:00,299.3247,1.1,11.37,47.84626,-54.09684
2024-01-20 10:39:00+00:00,290.8714,1.0,11.37,47.84626,-54.09684
2024-01-20 10:49:00+00:00,300.6213,1.07,11.37,47.84626,-54.09684
2024-01-20 10:59:00+00:00,287.4814,1.1,11.37,47.84626,-54.09684
2024-01-20 11:09:00+00:00,265.5064,1.0,11.37,47.84626,-54.09684
2024-01-20 11:19:00+00:00,271.3947,1.06,11.37,47.84626,-54.09684
2024-01-20 11:29:00+00:00,283.5781,1.12,11.37,47.84626,-54.09684
2024-01-20 11:39:00+00:00,269.6714,1.29,11.37,47.84626,-54.09684
2024-01-20 11:49:00+00:00,264.7514,1.29,11.37,47.84626,-54.09684
2024-01-20 11:59:00+00:00,284.3698,1.23,11.37,47.84626,-54.09684
2024-01-20 12:09:00+00:00,283.1463,1.2,11.37,47.84626,-54.09684
2024-01-20 12:19:00+00:00,258.2364,1.09,11.37,47.84626,-54.09684
2024-01-20 12:29:00+00:00,250.6881,1.1,11.37,47.84626,-54.09684
2024-01-20 12:39:00+00:00,261.8564,1.1,11.37,47.84626,-54.09684
2024-01-20 12:49:00+00:00,259.8997,1.14,11.37,47.84626,-54.09684
2024-01-20 12:59:00+00:00,252.9397,1.3,11.37,47.84626,-54.09684
2024-01-20 13:09:00+00:00,255.5047,1.52,11.37,47.84626,-54.09684
2024-01-20 13:19:00+00:00,257.2097,1.6,11.46,47.84626,-54.09684
2024-01-20 13:29:00+00:00,255.2864,1.6,11.46,47.84626,-54.09684
2024-01-20 13:39:00+00:00,257.3931,1.67,11.46,47.84626,-54.09684
2024-01-20 13:49:00+00:00,254.1498,1.7,11.46,47.84626,-54.09684
2024-01-20 13:59:00+00:00,252.0481,1.6,11.46,47.84626,-54.09684
2024-01-20 14:09:00+00:00,260.638,1.5,11.46,47.84626,-54.09684
2024-01-20 14:19:00+00:00,262.9897,1.4,11.46,47.84626,-54.09684
2024-01-20 14:29:00+00:00,251.3964,1.2,11.46,47.84626,-54.09684
2024-01-20 14:39:00+00:00,249.6997,1.3,11.46,47.84626,-54.09684
2024-01-20 14:49:00+00:00,257.2931,1.4,11.46,47.84626,-54.09684
2024-01-20 14:59:00+00:00,254.4681,1.3,11.46,47.84626,-54.09684
2024-01-20 15:09:00+00:00,248.5464,1.16,11.46,47.84626,-54.09684
2024-01-20 15:19:00+00:00,256.643,1.22,11.46,47.84626,-54.09684
2024-01-20 15:29:00+00:00,265.5247,1.39,11.46,47.84626,-54.09684
2024-01-20 15:39:00+00:00,263.8047,1.4,11.46,47.84626,-54.09684
2024-01-20 15:49:00+00:00,262.2447,1.4,11.46,47.84626,-54.09684
2024-01-20 15:59:00+00:00,267.4548,1.4,11.46,47.84626,-54.09684
2024-01-20 16:09:00+00:00,271.4681,1.48,11.46,47.84626,-54.09684
2024-01-20 16:19:00+00:00,272.6231,1.4,11.46,47.84626,-54.09684
2024-01-20 16:29:00+00:00,278.8497,1.51,11.46,47.84626,-54.09684
2024-01-20 16:39:00+00:00,287.238,1.6,11.46,47.84626,-54.09684
2024-01-20 16:49:00+00:00,291.1931,1.63,11.46,47.84626,-54.09684
2024-01-20 16:59:00+00:00,297.46299999999997,1.66,11.46,47.84626,-54.09684
2024-01-20 17:09:00+00:00,308.518,1.7,11.46,47.84626,-54.09684
2024-01-20 17:19:00+00:00,310.2014,1.7,11.46,47.84626,-54.09684
2024-01-20 17:29:00+00:00,307.6697,1.68,11.46,47.84626,-54.09684
2024-01-20 17:39:00+00:00,315.77299999999997,1.6,11.46,47.84626,-54.09684
2024-01-20 17:49:00+00:00,322.83799999999997,1.6,11.46,47.84626,-54.09684
2024-01-20 17:59:00+00:00,316.8763,1.5,11.46,47.84626,-54.09684
2024-01-20 18:09:00+00:00,310.7263,1.5,11.46,47.84626,-54.09684
2024-01-20 18:19:00+00:00,318.8697,1.5,11.46,47.84626,-54.09684
2024-01-20 18:29:00+00:00,324.9213,1.59,11.46,47.84626,-54.09684
2024-01-20 18:39:00+00:00,314.598,1.6,11.46,47.84626,-54.09684
2024-01-20 18:49:00+00:00,307.2513,1.59,11.46,47.84626,-54.09684
2024-01-20 18:59:00+00:00,317.428,1.6,11.46,47.84626,-54.09684
2024-01-20 19:09:00+00:00,322.813,1.6,11.46,47.84626,-54.09684
2024-01-20 19:19:00+00:00,308.1831,1.5,11.46,47.84626,-54.09684
2024-01-20 19:29:00+00:00,306.373,1.59,11.46,47.84626,-54.09684
2024-01-20 19:39:00+00:00,320.8147,1.6,11.46,47.84626,-54.09684
2024-01-20 19:49:00+00:00,322.6647,1.6,11.46,47.84626,-54.09684
2024-01-20 19:59:00+00:00,312.9564,1.55,11.46,47.84626,-54.09684
2024-01-20 20:09:00+00:00,317.2831,1.68,11.46,47.84626,-54.09684
2024-01-20 20:19:00+00:00,326.6364,1.7,11.46,47.84626,-54.09684
2024-01-20 20:29:00+00:00,325.9947,1.63,11.46,47.84626,-54.09684
2024-01-20 20:39:00+00:00,323.1546,1.73,11.46,47.84626,-54.09684
2024-01-20 20:49:00+00:00,325.8663,1.8,11.46,47.84626,-54.09684
2024-01-20 20:59:00+00:00,328.4046,1.8,11.46,47.84626,-54.09684
2024-01-20 21:09:00+00:00,324.9296,1.77,11.46,47.84626,-54.09684
2024-01-20 21:19:00+00:00,321.6179,1.8,11.46,47.84626,-54.09684
2024-01-20 21:29:00+00:00,320.5862,1.85,11.46,47.84626,-54.09684
2024-01-20 21:39:00+00:00,319.7563,1.8,11.46,47.84626,-54.09684
2024-01-20 21:49:00+00:00,316.303,1.81,11.46,47.84626,-54.09684
2024-01-20 21:59:00+00:00,310.9046,1.8,11.46,47.84626,-54.09684
2024-01-20 22:09:00+00:00,306.968,1.55,11.46,47.84626,-54.09684
2024-01-20 22:19:00+00:00,299.8263,1.4,11.46,47.84626,-54.09684
2024-01-20 22:29:00+00:00,299.4431,1.42,11.46,47.84626,-54.09684
2024-01-20 22:39:00+00:00,292.1514,1.4,11.46,47.84626,-54.09684
2024-01-20 22:49:00+00:00,278.9164,1.3,11.46,47.84626,-54.09684
2024-01-20 22:59:00+00:00,277.4897,1.38,11.46,47.84626,-54.09684
2024-01-20 23:09:00+00:00,282.7297,1.5,11.46,47.84626,-54.09684
2024-01-20 23:19:00+00:00,277.5947,1.4,11.46,47.84626,-54.09684
2024-01-20 23:29:00+00:00,265.1647,1.4,11.46,47.84626,-54.09684
2024-01-20 23:39:00+00:00,262.2381,1.4,11.46,47.84626,-54.09684
2024-01-20 23:49:00+00:00,262.1681,1.5,11.46,47.84626,-54.09684
2024-01-20 23:59:00+00:00,256.4131,1.5,11.46,47.84626,-54.09684
